This is the latest recevied weather packets stored in our database for station/object DK0KTL-4. If no packets are shown the sender has not sent any weather packets the latest 10 day(s).
| Time | Temp. | Humidity | Pressure | Rain* | Wind** | Luminosity | Snow |
|---|---|---|---|---|---|---|---|
| 1777833509 | 21.11° C | 44% | 1010.1 hPa | 0 mm | - | - | - |
| 1777832609 | 21.67° C | 44% | 1010.1 hPa | 0 mm | - | - | - |
| 1777832308 | 21.67° C | 43% | 1009.8 hPa | 0 mm | - | - | - |
| 1777830807 | 22.78° C | 40% | 1009.9 hPa | 0 mm | - | - | - |
| 1777830506 | 23.33° C | 40% | 1010 hPa | 0 mm | - | - | - |
| 1777829906 | 23.33° C | 39% | 1009.9 hPa | 0 mm | - | - | - |
| 1777829305 | 23.33° C | 39% | 1009.7 hPa | 0 mm | - | - | - |
| 1777829005 | 23.89° C | 39% | 1009.8 hPa | 0 mm | - | - | - |
| 1777828705 | 23.89° C | 38% | 1009.8 hPa | 0 mm | - | - | - |
| 1777827804 | 24.44° C | 38% | 1009.8 hPa | 0 mm | - | - | - |
| 1777827504 | 24.44° C | 36% | 1009.8 hPa | 0 mm | - | - | - |
| 1777827203 | 24.44° C | 37% | 1009.8 hPa | 0 mm | - | - | - |
| 1777826903 | 25° C | 37% | 1009.7 hPa | 0 mm | - | - | - |
| 1777824200 | 25° C | 40% | 1009.7 hPa | 0 mm | - | - | - |
| 1777821798 | 26.11° C | 40% | 1009.7 hPa | 0 mm | - | - | - |
| 1777820597 | 26.67° C | 27% | 1009.9 hPa | 0 mm | - | - | - |
| 1777819996 | 27.22° C | 28% | 1009.9 hPa | 0 mm | - | - | - |
| 1777818795 | 28.33° C | 26% | 1009.9 hPa | 0 mm | - | - | - |
| 1777818194 | 27.78° C | 32% | 1010 hPa | 0 mm | - | - | - |
| 1777817594 | 27.22° C | 28% | 1010.3 hPa | 0 mm | - | - | - |
| 1777816393 | 27.22° C | 27% | 1010.4 hPa | 0 mm | - | - | - |
| 1777815192 | 27.22° C | 26% | 1010.7 hPa | 0 mm | - | - | - |
| 1777814591 | 27.78° C | 28% | 1010.8 hPa | 0 mm | - | - | - |
| 1777812789 | 27.78° C | 30% | 1011.1 hPa | 0 mm | - | - | - |
| 1777811888 | 28.33° C | 30% | 1011.4 hPa | 0 mm | - | - | - |
* Rain latest hour (hover to see other rain measurements)
** Current wind speed in m/s (hover to see current wind gust speed)